******** Week 360 almanac for PRN-1 ******** ID: 1 Health: 0 Eccentricity: 0.0015873909 Time of Applicability(s): 319488 Orbital Inclination(rad): 0.9583029651 Rate of Right Ascen(r/s): -7.783181343e-09 SQRT(A) (m 1/2): 5153.579102 Right Ascen at Week(rad): 3.136090023 Argument of Perigee(rad): 0.08709722707 Mean Anom(rad): 0.605953121 Af0(s): 0.0002554955933 Af1(s/s): -7.275958e-12 week: 360 ******** Week 360 almanac for PRN-2 ******** ID: 2 Health: 0 Eccentricity: 0.01689815521 Time of Applicability(s): 319488 Orbital Inclination(rad): 0.9635400713 Rate of Right Ascen(r/s): -7.737465153e-09 SQRT(A) (m 1/2): 5153.546387 Right Ascen at Week(rad): 2.973654715 Argument of Perigee(rad): -0.8110193131 Mean Anom(rad): 2.06962396 Af0(s): 3.994473877e-05 Af1(s/s): 7.275958e-12 week: 360 ******** Week 360 almanac for PRN-3 ******** ID: 3 Health: 0 Eccentricity: 0.00648355484 Time of Applicability(s): 319488 Orbital Inclination(rad): 0.9932789255 Rate of Right Ascen(r/s): -7.611745631e-09 SQRT(A) (m 1/2): 5153.58252 Right Ascen at Week(rad): -2.160343045 Argument of Perigee(rad): 1.202132358 Mean Anom(rad): -1.523747009 Af0(s): 0.0004356237549 Af1(s/s): -1.091394e-11 week: 360 ******** Week 360 almanac for PRN-4 ******** ID: 4 Health: 0 Eccentricity: 0.003720760345 Time of Applicability(s): 319488 Orbital Inclination(rad): 0.9704130243 Rate of Right Ascen(r/s): -8.171768958e-09 SQRT(A) (m 1/2): 5153.673828 Right Ascen at Week(rad): -1.089472779 Argument of Perigee(rad): -2.879325383 Mean Anom(rad): 1.457871598 Af0(s): 3.69300415e-05 Af1(s/s): 3.637979e-12 week: 360 ******** Week 360 almanac for PRN-5 ******** ID: 5 Health: 0 Eccentricity: 0.005391120911 Time of Applicability(s): 319488 Orbital Inclination(rad): 0.9798625857 Rate of Right Ascen(r/s): -7.748894201e-09 SQRT(A) (m 1/2): 5153.659668 Right Ascen at Week(rad): -2.220110996 Argument of Perigee(rad): 1.417022244 Mean Anom(rad): 2.121498427 Af0(s): -0.0001816355103 Af1(s/s): 0 week: 360 ******** Week 360 almanac for PRN-6 ******** ID: 6 Health: 0 Eccentricity: 0.00385761261 Time of Applicability(s): 319488 Orbital Inclination(rad): 0.987178955 Rate of Right Ascen(r/s): -7.508884204e-09 SQRT(A) (m 1/2): 5153.59668 Right Ascen at Week(rad): 3.086691797 Argument of Perigee(rad): -0.5651078865 Mean Anom(rad): -0.2056294506 Af0(s): -0.0004838589111 Af1(s/s): 0 week: 360 ******** Week 360 almanac for PRN-7 ******** ID: 7 Health: 0 Eccentricity: 0.02049160004 Time of Applicability(s): 319488 Orbital Inclination(rad): 0.9513940594 Rate of Right Ascen(r/s): -7.828897533e-09 SQRT(A) (m 1/2): 5153.578125 Right Ascen at Week(rad): -0.08082685589 Argument of Perigee(rad): -1.991393561 Mean Anom(rad): -1.069315687 Af0(s): -0.0001236025879 Af1(s/s): -3.637979e-12 week: 360 ******** Week 360 almanac for PRN-8 ******** ID: 8 Health: 0 Eccentricity: 0.01157665253 Time of Applicability(s): 319488 Orbital Inclination(rad): 0.9431608969 Rate of Right Ascen(r/s): -8.480353241e-09 SQRT(A) (m 1/2): 5153.622559 Right Ascen at Week(rad): 1.966456262 Argument of Perigee(rad): 0.5241540449 Mean Anom(rad): 1.758638567 Af0(s): 0.0003821128784 Af1(s/s): -7.275958e-12 week: 360 ******** Week 360 almanac for PRN-9 ******** ID: 9 Health: 0 Eccentricity: 0.003354549408 Time of Applicability(s): 319488 Orbital Inclination(rad): 0.9645527384 Rate of Right Ascen(r/s): -8.251772291e-09 SQRT(A) (m 1/2): 5153.716797 Right Ascen at Week(rad): -1.153753165 Argument of Perigee(rad): 2.065830953 Mean Anom(rad): 2.353461339 Af0(s): 0.0006067078247 Af1(s/s): 0 week: 360 ******** Week 360 almanac for PRN-10 ******** ID: 10 Health: 0 Eccentricity: 0.01094198227 Time of Applicability(s): 319488 Orbital Inclination(rad): 0.9928115407 Rate of Right Ascen(r/s): -7.646032773e-09 SQRT(A) (m 1/2): 5153.605469 Right Ascen at Week(rad): -2.162852991 Argument of Perigee(rad): -2.25540716 Mean Anom(rad): -2.514810202 Af0(s): -0.0004657707275 Af1(s/s): 0 week: 360 ******** Week 360 almanac for PRN-11 ******** ID: 11 Health: 0 Eccentricity: 0.002203941345 Time of Applicability(s): 319488 Orbital Inclination(rad): 0.9640434088 Rate of Right Ascen(r/s): -7.726036106e-09 SQRT(A) (m 1/2): 5153.530273 Right Ascen at Week(rad): 3.105435125 Argument of Perigee(rad): -2.300766327 Mean Anom(rad): 0.8790421482 Af0(s): -0.0003308630249 Af1(s/s): 1.455192e-11 week: 360 ******** Week 360 almanac for PRN-12 ******** ID: 12 Health: 0 Eccentricity: 0.009024143219 Time of Applicability(s): 319488 Orbital Inclination(rad): 0.9590699555 Rate of Right Ascen(r/s): -7.954617056e-09 SQRT(A) (m 1/2): 5153.722656 Right Ascen at Week(rad): 1.03667328 Argument of Perigee(rad): 1.559946484 Mean Anom(rad): -1.728923681 Af0(s): -0.0004800905395 Af1(s/s): 0 week: 360 ******** Week 360 almanac for PRN-13 ******** ID: 13 Health: 0 Eccentricity: 0.01000928879 Time of Applicability(s): 319488 Orbital Inclination(rad): 0.976099539 Rate of Right Ascen(r/s): -8.091765626e-09 SQRT(A) (m 1/2): 5153.615723 Right Ascen at Week(rad): -0.9785677655 Argument of Perigee(rad): 0.9962549834 Mean Anom(rad): 1.511504749 Af0(s): 0.0005411381592 Af1(s/s): 0 week: 360 ******** Week 360 almanac for PRN-14 ******** ID: 14 Health: 0 Eccentricity: 0.006721496582 Time of Applicability(s): 319488 Orbital Inclination(rad): 0.9424538276 Rate of Right Ascen(r/s): -8.114623721e-09 SQRT(A) (m 1/2): 5153.600098 Right Ascen at Week(rad): 0.9819922577 Argument of Perigee(rad): -2.749470314 Mean Anom(rad): -1.88675817 Af0(s): 0.0005825902466 Af1(s/s): 3.637979e-12 week: 360 ******** Week 360 almanac for PRN-15 ******** ID: 15 Health: 0 Eccentricity: 0.0166182518 Time of Applicability(s): 319488 Orbital Inclination(rad): 0.9424118828 Rate of Right Ascen(r/s): -8.491782288e-09 SQRT(A) (m 1/2): 5153.630859 Right Ascen at Week(rad): -1.297901295 Argument of Perigee(rad): 1.501746594 Mean Anom(rad): 0.7614031239 Af0(s): 0.0003090064697 Af1(s/s): 3.637979e-12 week: 360 ******** Week 360 almanac for PRN-16 ******** ID: 16 Health: 0 Eccentricity: 0.01504802704 Time of Applicability(s): 319488 Orbital Inclination(rad): 0.9581891149 Rate of Right Ascen(r/s): -8.011762293e-09 SQRT(A) (m 1/2): 5153.597656 Right Ascen at Week(rad): 1.053650058 Argument of Perigee(rad): 0.9295178309 Mean Anom(rad): 2.786093356 Af0(s): 0.0001733450928 Af1(s/s): 7.275958e-12 week: 360 ******** Week 360 almanac for PRN-17 ******** ID: 17 Health: 0 Eccentricity: 0.01266098022 Time of Applicability(s): 319488 Orbital Inclination(rad): 0.9588842 Rate of Right Ascen(r/s): -8.274630386e-09 SQRT(A) (m 1/2): 5153.531738 Right Ascen at Week(rad): 2.071224603 Argument of Perigee(rad): -1.121728695 Mean Anom(rad): 1.689065273 Af0(s): -6.180129394e-05 Af1(s/s): -1.091394e-11 week: 360 ******** Week 360 almanac for PRN-18 ******** ID: 18 Health: 0 Eccentricity: 0.005747795105 Time of Applicability(s): 319488 Orbital Inclination(rad): 0.9721327606 Rate of Right Ascen(r/s): -7.680319916e-09 SQRT(A) (m 1/2): 5153.594727 Right Ascen at Week(rad): 3.081634829 Argument of Perigee(rad): -2.865043557 Mean Anom(rad): -0.2958032529 Af0(s): -0.0003240799561 Af1(s/s): 1.091394e-11 week: 360 ******** Week 360 almanac for PRN-19 ******** ID: 19 Health: 0 Eccentricity: 0.01113033295 Time of Applicability(s): 319488 Orbital Inclination(rad): 0.9580812569 Rate of Right Ascen(r/s): -8.286059433e-09 SQRT(A) (m 1/2): 5153.658691 Right Ascen at Week(rad): 2.115129186 Argument of Perigee(rad): 2.931901301 Mean Anom(rad): -2.780124089 Af0(s): 0.0005471675537 Af1(s/s): 0 week: 360 ******** Week 360 almanac for PRN-20 ******** ID: 20 Health: 255 Eccentricity: 0.0003180503845 Time of Applicability(s): 319488 Orbital Inclination(rad): 0.9599807566 Rate of Right Ascen(r/s): -8.320346576e-09 SQRT(A) (m 1/2): 5153.634766 Right Ascen at Week(rad): -1.148151664 Argument of Perigee(rad): 1.087109265 Mean Anom(rad): 1.442331054 Af0(s): 2.487125244e-05 Af1(s/s): 2.546585e-11 week: 360 ******** Week 360 almanac for PRN-21 ******** ID: 21 Health: 0 Eccentricity: 0.0007448196411 Time of Applicability(s): 319488 Orbital Inclination(rad): 0.9626831993 Rate of Right Ascen(r/s): -7.977475151e-09 SQRT(A) (m 1/2): 5153.714355 Right Ascen at Week(rad): -2.154150196 Argument of Perigee(rad): -0.342458215 Mean Anom(rad): -2.006798159 Af0(s): 0.0003203115845 Af1(s/s): 3.637979e-12 week: 360 ******** Week 360 almanac for PRN-22 ******** ID: 22 Health: 0 Eccentricity: 0.01209592819 Time of Applicability(s): 319488 Orbital Inclination(rad): 0.9576258564 Rate of Right Ascen(r/s): -8.023191341e-09 SQRT(A) (m 1/2): 5153.574219 Right Ascen at Week(rad): 1.057000398 Argument of Perigee(rad): -0.9933645382 Mean Anom(rad): 2.336887905 Af0(s): -3.090064697e-05 Af1(s/s): 3.637979e-12 week: 360 ******** Week 360 almanac for PRN-23 ******** ID: 23 Health: 0 Eccentricity: 0.006035804748 Time of Applicability(s): 319488 Orbital Inclination(rad): 0.987820111 Rate of Right Ascen(r/s): -7.646032773e-09 SQRT(A) (m 1/2): 5153.659668 Right Ascen at Week(rad): -2.194950116 Argument of Perigee(rad): -2.737828763 Mean Anom(rad): -1.43200215 Af0(s): 0.0004898883057 Af1(s/s): 3.637979e-12 week: 360 ******** Week 360 almanac for PRN-24 ******** ID: 24 Health: 0 Eccentricity: 0.01791000366 Time of Applicability(s): 319488 Orbital Inclination(rad): 0.9353591665 Rate of Right Ascen(r/s): -8.046049436e-09 SQRT(A) (m 1/2): 5153.599609 Right Ascen at Week(rad): -0.1893121794 Argument of Perigee(rad): 1.135154772 Mean Anom(rad): -0.08689424426 Af0(s): -7.612110596e-05 Af1(s/s): 1.818989e-11 week: 360 ******** Week 360 almanac for PRN-25 ******** ID: 25 Health: 0 Eccentricity: 0.01293849945 Time of Applicability(s): 319488 Orbital Inclination(rad): 0.9474991863 Rate of Right Ascen(r/s): -8.023191341e-09 SQRT(A) (m 1/2): 5153.672852 Right Ascen at Week(rad): 0.9428105834 Argument of Perigee(rad): 1.157253308 Mean Anom(rad): -1.863336126 Af0(s): 0.0003474438599 Af1(s/s): -3.637979e-12 week: 360 ******** Week 360 almanac for PRN-26 ******** ID: 26 Health: 0 Eccentricity: 0.01100969315 Time of Applicability(s): 319488 Orbital Inclination(rad): 0.9283244265 Rate of Right Ascen(r/s): -8.206056101e-09 SQRT(A) (m 1/2): 5153.664551 Right Ascen at Week(rad): 0.8682349988 Argument of Perigee(rad): 0.7094900831 Mean Anom(rad): -2.684097116 Af0(s): -0.0002652933594 Af1(s/s): -3.637979e-12 week: 360 ******** Week 360 almanac for PRN-27 ******** ID: 27 Health: 0 Eccentricity: 0.0143623352 Time of Applicability(s): 319488 Orbital Inclination(rad): 0.9522748999 Rate of Right Ascen(r/s): -8.388920861e-09 SQRT(A) (m 1/2): 5153.603516 Right Ascen at Week(rad): 1.998514813 Argument of Perigee(rad): 0.8816236251 Mean Anom(rad): 1.859486194 Af0(s): -4.59741333e-05 Af1(s/s): -1.091394e-11 week: 360 ******** Week 360 almanac for PRN-28 ******** ID: 28 Health: 0 Eccentricity: 0.0004229545593 Time of Applicability(s): 319488 Orbital Inclination(rad): 0.9623236725 Rate of Right Ascen(r/s): -7.760323248e-09 SQRT(A) (m 1/2): 5153.753418 Right Ascen at Week(rad): -0.1065397595 Argument of Perigee(rad): 0.002585971031 Mean Anom(rad): -0.7407471887 Af0(s): -0.000462002356 Af1(s/s): 7.275958e-12 week: 360 ******** Week 360 almanac for PRN-29 ******** ID: 29 Health: 0 Eccentricity: 0.003369808197 Time of Applicability(s): 319488 Orbital Inclination(rad): 0.9615446979 Rate of Right Ascen(r/s): -8.240343243e-09 SQRT(A) (m 1/2): 5153.698242 Right Ascen at Week(rad): 2.087959075 Argument of Perigee(rad): 2.740204261 Mean Anom(rad): 1.724505622 Af0(s): -0.0002886572632 Af1(s/s): 7.275958e-12 week: 360 ******** Week 360 almanac for PRN-30 ******** ID: 30 Health: 0 Eccentricity: 0.008065700531 Time of Applicability(s): 319488 Orbital Inclination(rad): 0.9366474707 Rate of Right Ascen(r/s): -8.000333246e-09 SQRT(A) (m 1/2): 5153.710449 Right Ascen at Week(rad): -0.08984873021 Argument of Perigee(rad): -2.317436384 Mean Anom(rad): -1.239881168 Af0(s): 0.0001115437988 Af1(s/s): 1.455192e-11 week: 360 ******** Week 360 almanac for PRN-31 ******** ID: 31 Health: 0 Eccentricity: 0.0108628273 Time of Applicability(s): 319488 Orbital Inclination(rad): 0.955157106 Rate of Right Ascen(r/s): -7.783181343e-09 SQRT(A) (m 1/2): 5153.527344 Right Ascen at Week(rad): -0.05660711186 Argument of Perigee(rad): 0.9349657847 Mean Anom(rad): -2.165203771 Af0(s): -0.0001288783081 Af1(s/s): 3.637979e-12 week: 360 ******** Week 360 almanac for PRN-32 ******** ID: 32 Health: 0 Eccentricity: 0.009344100952 Time of Applicability(s): 319488 Orbital Inclination(rad): 0.9676027236 Rate of Right Ascen(r/s): -8.217485148e-09 SQRT(A) (m 1/2): 5153.67334 Right Ascen at Week(rad): -1.136736689 Argument of Perigee(rad): -1.997836955 Mean Anom(rad): 2.434902761 Af0(s): -5.124985352e-05 Af1(s/s): 1.818989e-11 week: 360